Regional Weather Roundup
Issued by NWS

Home | Current Version | Previous Version | Graphics & Text | Print | Product List | Glossary On
Versions: 1 2 3 4 5 6 7 8 9 10 11 12 13 14 15 16 17 18 19 20 21 22 23 24 25 26 27 28 29 30 31 32 33 34 35 36 37 38 39 40 41 42 43 44 45 46 47 48 49 50
299
ASUS43 KLSX 230257
RWRMO

WEATHER SUMMARY FOR MISSOURI
NATIONAL WEATHER SERVICE SPRINGFIELD MO
900 PM CST SUN JAN 22 2017

NOTE: "FAIR" INDICATES FEW OR NO CLOUDS BELOW 12,000 FEET WITH NO
       SIGNIFICANT WEATHER AND/OR OBSTRUCTIONS TO VISIBILITY.
       CURRENT SKY AND/OR WEATHER CONDITIONS ARE NOT AVAILABLE FOR
       CHILLICOTHE AND FARMINGTON.

MOZ001>031-035>038-043-044-053-054-230400-
...NORTHERN AND WESTERN MISSOURI...

CITY           SKY/WX    TMP DP  RH WIND       PRES   REMARKS
KANSAS CTY INT CLOUDY    38  32  79 NW13      29.84S WCI  30
LEE`S SUMMIT   CLOUDY    38  34  85 NW12      29.83S
ST JOSEPH      CLOUDY    37  35  92 NW6       29.87R
CHILLICOTHE      N/A     39  35  86 NW8       29.82R

$$
MOZ066>068-077>081-088>096-101>105-230400-
...SOUTHWEST MISSOURI...

CITY           SKY/WX    TMP DP  RH WIND       PRES   REMARKS
SPRINGFIELD    CLOUDY    36  34  92 NW17      29.80R WCI  26
JOPLIN         CLOUDY    37  34  89 N12       29.86R WCI  29
BRANSON        CLOUDY    41  39  93 NW17G26   29.75R

$$
MOZ032>034-039>042-045>050-055>058-069>072-230400-
...CENTRAL MISSOURI...

CITY           SKY/WX    TMP DP  RH WIND       PRES   REMARKS
COLUMBIA       CLOUDY    39  37  93 N18       29.77R WCI  30
JEFFERSON CITY CLOUDY    41  36  82 NW7       29.78R
ROLLA          CLOUDY    39  36  89 N14G24    29.72R
SEDALIA        CLOUDY    40  37  89 NW13      29.82R
WARRENSBURG    CLOUDY    37  34  87 NW9       29.81R

$$
MOZ051-052-059>065-230400-
...EAST CENTRAL MISSOURI...

CITY           SKY/WX    TMP DP  RH WIND       PRES   REMARKS
ST LOUIS INTL  NOT AVBL

$$
MOZ072>076-082>087-097>100-106>115-230400-
...SOUTH CENTRAL AND SOUTHEAST MISSOURI...

CITY           SKY/WX    TMP DP  RH WIND       PRES   REMARKS
CAPE GIRARDEAU CLOUDY    51  45  79 N24G36    29.54R
POPLAR BLUFF   PTCLDY    53  46  77 N21G26    29.54R
WEST PLAINS    CLOUDY    43  38  82 N18G25    29.69R

$$



USA.gov is the U.S. government's official web portal to all federal, state and local government web resources and services.